Sheboygan, WI

11:32 AM CDT on August 20, 2017 (GMT -0500)
Sheboygan County Memorial

Weather History for KSBM - April, 2013

Change the Weather History Date:

Saturday, April 20, 2013

  Actual Average Record
Temperature  
Mean Temperature 32 °F -  
Max Temperature 41 °F 52 °F 76 °F (1952)
Min Temperature 26 °F 38 °F 26 °F (2013)
Degree Days  
Heating Degree Days 32    
Moisture  
Dew Point 19 °F    
Average Humidity 61    
Maximum Humidity 85    
Minimum Humidity 36    
Precipitation  
Precipitation 0.00 in - - ()
Sea Level Pressure  
Sea Level Pressure 30.21 in    
Wind  
Wind Speed 11 mph (WNW)    
Max Wind Speed 16 mph    
Max Gust Speed 23 mph    
Visibility 10 miles    
Events      
Averages and records for this station are not official NWS values.
T = Trace of Precipitation, MM = Missing Value Source: NWS Daily Summary

Daily Weather History Graph

Daily Weather History Graph

Search for Another Location

Airport or City:

Trip Planner

Search our weather history database for the weather conditions in past years. The results will help you decide how hot, cold, wet, or windy it might be!

Date:

Astronomy

Apr. 20, 2013 Rise Set
Actual Time 5:59 AM CDT 7:41 PM CDT
Civil Twilight 5:29 AM CDT 8:11 PM CDT
Nautical Twilight 4:52 AM CDT 8:48 PM CDT
Astronomical Twilight 4:12 AM CDT 9:28 PM CDT
Moon 2:15 PM CDT 2:59 AM CDT
Length of Visible Light 14h 42m
Length of Day
13h 41m
Waxing Gibbous, 71% of the Moon is Illuminated
Apr 20
Waxing Gibbous
Apr 25
Full
May 2
Last Quarter
May 9
New
May 17
First Quarter

Hourly Weather History & Observations

Time (CDT) Temp. Windchill Dew Point Humidity Pressure Visibility Wind Dir Wind Speed Gust Speed Precip Events Conditions
12:53 AM 28.0 °F 16.1 °F 17.1 °F 63% 29.91 in 10.0 mi NW 16.1 mph 23.0 mph N/A   Partly Cloudy
1:53 AM 27.0 °F 16.7 °F 17.1 °F 66% 29.94 in 10.0 mi NW 11.5 mph - N/A   Partly Cloudy
2:53 AM 27.0 °F 16.7 °F 16.0 °F 63% 29.96 in 10.0 mi NW 11.5 mph - N/A   Clear
3:53 AM 27.0 °F 18.0 °F 17.1 °F 66% 30.00 in 10.0 mi NW 9.2 mph - N/A   Clear
4:53 AM 26.1 °F 17.6 °F 17.1 °F 69% 30.03 in 10.0 mi NW 8.1 mph - N/A   Clear
5:53 AM 26.1 °F 19.4 °F 18.0 °F 71% 30.06 in 10.0 mi WNW 5.8 mph - N/A   Clear
6:53 AM 27.0 °F 18.0 °F 18.0 °F 69% 30.09 in 10.0 mi NW 9.2 mph - N/A   Clear
7:53 AM 28.9 °F 17.3 °F 18.0 °F 64% 30.13 in 10.0 mi WNW 16.1 mph 20.7 mph N/A   Scattered Clouds
8:05 AM 28.4 °F 18.5 °F 17.6 °F 64% 30.11 in 10.0 mi WNW 11.5 mph - N/A   Mostly Cloudy
8:24 AM 28.4 °F 17.0 °F 17.6 °F 64% 30.12 in 10.0 mi NW 15.0 mph 21.9 mph N/A   Scattered Clouds
8:53 AM 30.0 °F 18.7 °F 17.1 °F 59% 30.17 in 10.0 mi NW 16.1 mph - N/A   Clear
9:53 AM 30.9 °F 20.7 °F 17.1 °F 57% 30.20 in 10.0 mi NW 13.8 mph 21.9 mph N/A   Clear
10:53 AM 32.0 °F 23.0 °F 18.0 °F 56% 30.23 in 10.0 mi NW 11.5 mph 20.7 mph N/A   Clear
11:53 AM 34.0 °F 24.6 °F 19.0 °F 54% 30.25 in 10.0 mi West 13.8 mph 20.7 mph N/A   Partly Cloudy
12:53 PM 35.1 °F 27.4 °F 19.0 °F 52% 30.27 in 10.0 mi West 10.4 mph 18.4 mph N/A   Scattered Clouds
1:53 PM 37.9 °F 32.1 °F 19.0 °F 47% 30.28 in 10.0 mi WNW 8.1 mph 16.1 mph N/A   Partly Cloudy
2:53 PM 37.9 °F 30.9 °F 17.1 °F 43% 30.30 in 10.0 mi WNW 10.4 mph 16.1 mph N/A   Clear
3:53 PM 39.0 °F 34.0 °F 17.1 °F 41% 30.31 in 10.0 mi WNW 6.9 mph - N/A   Clear
4:53 PM 39.9 °F 35.1 °F 15.1 °F 36% 30.32 in 10.0 mi West 6.9 mph - N/A   Clear
5:53 PM 39.9 °F 37.8 °F 15.1 °F 36% 30.34 in 10.0 mi Variable 3.5 mph - N/A   Clear
6:53 PM 35.1 °F 26.9 °F 24.1 °F 64% 30.36 in 10.0 mi South 11.5 mph - N/A   Clear
7:53 PM 33.1 °F 26.1 °F 23.0 °F 66% 30.39 in 10.0 mi SSE 8.1 mph - N/A   Clear
8:53 PM 30.9 °F 27.5 °F 24.1 °F 76% 30.41 in 10.0 mi South 3.5 mph - N/A   Clear
9:53 PM 28.9 °F 22.8 °F 24.1 °F 82% 30.43 in 10.0 mi SSW 5.8 mph - N/A   Clear
10:53 PM 28.9 °F 23.9 °F 24.1 °F 82% 30.45 in 10.0 mi South 4.6 mph - N/A   Clear
11:53 PM 28.0 °F 24.2 °F 24.1 °F 85% 30.45 in 10.0 mi South 3.5 mph - N/A   Clear